Temp
27 26 26 25 23 22 21 20 19 18 19 19 19 18 18 18 16 15 15 15 15 15 14 14 14 14 13 13 13 13 12 12 12 12 11 12 11 11 12 10 10 10 11
27 26 26 25 23 22 21 20 20 19 20 21 20 20 18 17 17 15 15 14 14 14 14 13 13 13 12 12 12 12 12 11 11 10 10 8 10 11 9 10 10 10 9
26 25 25 24 24 22 21 21 20 20 21 20 18 18 18 17 17 16 15 14 14 14 13 13 13 12 12 12 11 11 11 10 10 10 10 7 6 8 8 8 9 9 9
26 25 24 24 22 21 21 21 21 20 19 19 19 18 18 16 16 15 14 14 13 13 12 12 12 11 11 11 11 11 10 10 9 9 8 8 7 5 6 8 8 8 7
26 24 24 21 21 21 21 21 20 19 18 18 17 17 16 16 15 14 13 13 12 12 12 11 10 10 10 10 10 10 9 8 7 6 7 7 7 7 6 4 6 6 6
25 25 22 21 21 21 21 19 19 18 17 16 16 15 15 14 13 13 12 12 12 11 11 10 9 9 9 10 9 8 7 6 6 5 6 6 6 6 5 4 5 5 6
25 24 22 22 21 20 19 18 18 17 16 14 14 13 13 13 12 12 11 11 11 10 10 9 9 8 9 8 8 7 6 6 5 5 5 6 5 5 5 5 4 4 5
24 24 24 22 20 19 18 18 17 16 15 14 14 13 13 13 12 11 10 10 10 9 9 9 8 8 8 8 7 6 6 5 5 5 5 5 4 5 5 5 4 2 3
24 24 23 22 20 19 18 18 17 16 14 14 13 12 12 12 11 10 10 10 9 9 8 8 8 8 7 7 6 6 6 6 5 5 4 5 5 4 4 4 4 4 1
24 23 23 22 20 19 18 18 17 16 14 13 12 12 11 11 10 10 9 9 8 8 8 7 7 7 7 7 6 6 6 6 5 5 5 4 3 3 3 3 3 3 3
24 23 23 22 20 19 18 17 17 16 14 13 12 12 11 10 10 10 9 8 8 7 7 7 7 7 7 7 6 6 6 6 5 5 4 3 3 3 3 3 3 3 2
24 24 23 22 21 19 18 17 17 16 14 13 12 11 11 11 10 10 9 8 7 7 7 6 6 6 6 6 5 5 5 5 3 2 3 2 2 2 2 2 1 0 -0
24 24 23 22 20 19 18 17 16 15 14 13 12 11 11 10 10 10 9 8 7 7 6 6 6 6 6 5 5 5 5 4 3 3 2 2 2 1 1 -0 -1 -2 -2
25 24 23 21 20 19 17 16 16 15 14 13 12 12 11 11 10 9 8 8 7 6 6 6 6 6 5 5 5 5 4 3 3 3 2 2 1 0 -1 -2 -3 -3 -3
25 24 23 21 20 18 17 16 15 14 14 13 13 13 11 10 9 9 8 7 7 6 6 6 6 6 5 4 4 3 3 2 2 2 2 1 1 -0 -1 -2 -3 -4 -4
25 25 23 21 20 19 17 16 15 14 13 12 12 12 11 10 9 8 7 7 7 7 6 6 6 6 5 4 3 3 2 1 1 1 1 0 -0 -1 -2 -3 -3 -4 -4
23 23 23 21 20 19 17 16 15 14 13 12 12 11 10 9 8 7 7 7 7 7 7 6 6 6 5 4 2 2 1 0 0 0 -0 -1 -1 -2 -2 -3 -4 -5 -5
22 22 21 21 20 19 18 16 15 13 12 12 11 9 8 8 8 8 8 8 8 7 7 6 6 5 4 3 2 1 0 -0 -0 -1 -1 -1 -2 -3 -4 -5 -5 -6 -5
22 22 22 21 20 19 18 16 15 13 12 11 8 7 7 8 8 8 7 7 7 7 7 6 6 5 3 2 1 0 -1 -1 -1 -2 -2 -2 -2 -3 -4 -5 -7 -7 -6
22 22 21 20 19 18 17 15 14 13 11 9 8 7 5 7 7 5 6 6 6 6 6 6 5 4 2 1 -0 -1 -1 -2 -2 -2 -2 -2 -3 -4 -5 -7 -7 -7 -7
20 20 20 18 17 17 15 13 11 10 8 7 5 5 5 5 5 5 5 5 5 5 5 4 3 2 1 1 -0 -1 -2 -3 -3 -4 -3 -3 -5 -5 -5 -7 -7 -7 -7
19 18 13 11 10 11 13 10 8 6 4 4 3 5 4 4 4 4 3 4 4 4 4 3 2 1 1 0 -0 -1 -2 -3 -4 -4 -5 -4 -5 -5 -6 -6 -6 -6 -6
15 11 9 7 7 5 6 4 4 4 3 4 4 3 3 3 2 2 2 2 3 4 4 3 1 1 1 0 -0 -1 -2 -3 -4 -4 -5 -5 -5 -5 -5 -5 -5 -5 -6
12 10 7 5 4 3 3 2 3 3 3 2 1 2 2 2 2 2 2 2 2 3 3 3 2 1 1 1 -0 -2 -3 -4 -4 -4 -5 -5 -5 -4 -4 -4 -4 -4 -5
6 5 4 4 4 3 3 2 3 2 2 1 1 1 2 2 2 3 3 2 2 1 1 2 2 1 1 1 -0 -1 -3 -3 -4 -5 -5 -5 -4 -4 -4 -4 -4 -4 -5
4 3 3 3 3 3 3 3 3 2 1 0 1 1 2 2 2 2 2 2 2 1 1 1 1 1 1 -0 -1 -1 -2 -3 -3 -4 -5 -5 -4 -4 -4 -4 -4 -4 -4
Height
787 795 799 803 808 815 822 828 831 835 835 838 840 844 846 848 850 853 854 854 856 856 857 858 858 857 856 856 856 855 853 852 851 849 848 846 845 845 844 842 841 840 839
785 793 797 801 806 813 819 825 829 832 832 835 838 840 842 846 849 851 853 854 855 855 856 857 857 856 856 855 854 853 851 850 850 850 847 844 844 843 842 841 840 839 838
782 791 796 799 804 810 816 821 826 829 830 832 836 839 842 846 848 851 853 854 855 856 856 856 855 855 854 853 852 851 850 848 849 850 849 846 846 843 843 843 841 839 838
777 788 795 799 803 809 814 819 823 826 830 833 836 839 841 844 847 850 852 854 854 855 855 855 853 852 851 850 850 849 848 847 847 848 848 847 846 844 841 840 839 839 837
773 783 792 798 803 808 813 816 820 825 831 832 834 837 841 845 847 850 853 853 854 855 854 853 851 851 850 848 847 846 845 845 847 847 848 848 847 846 843 839 837 837 836
770 780 789 797 804 808 812 815 820 826 830 831 833 835 840 843 847 850 852 852 854 854 852 851 850 849 847 846 845 843 844 845 846 846 847 847 846 845 843 839 836 835 833
771 777 787 793 800 805 811 816 821 826 829 832 834 837 840 843 846 849 850 850 852 852 851 849 848 846 846 843 843 843 844 843 844 844 845 844 843 843 842 839 836 833 831
771 777 784 791 800 806 812 816 820 825 829 832 834 836 839 842 844 846 846 847 848 850 849 847 845 844 843 842 842 842 843 843 843 842 842 842 840 841 840 838 835 831 828
773 779 785 792 800 808 812 815 818 823 827 830 832 834 837 839 842 843 844 845 846 847 846 844 844 843 841 841 840 840 840 839 839 839 838 839 838 837 837 836 834 831 827
773 779 784 791 798 805 810 814 817 820 824 827 830 832 835 838 840 841 842 843 845 845 843 842 842 841 840 839 838 838 838 837 835 836 837 834 834 836 834 833 832 830 826
771 776 781 788 794 801 806 811 814 816 821 824 828 830 833 835 837 838 839 841 843 842 842 841 840 839 839 838 837 836 836 835 833 834 834 833 832 833 831 829 828 825 823
764 770 777 783 789 796 802 807 811 814 818 823 826 828 831 833 836 836 837 839 839 839 839 840 838 837 837 835 835 835 834 835 834 833 834 832 831 830 828 827 825 823 820
758 764 771 777 784 792 799 804 810 813 817 822 824 827 828 830 833 836 837 838 838 838 837 837 836 834 833 833 832 831 829 829 832 832 830 829 828 827 825 823 823 821 819
753 758 763 770 779 789 796 803 808 812 817 820 824 824 825 828 830 832 835 835 835 836 835 834 833 832 831 830 829 829 829 830 828 828 827 827 825 823 822 822 821 820 818
748 752 757 765 774 784 792 799 805 810 814 819 822 822 823 825 828 829 832 832 832 832 832 830 829 829 829 829 828 828 827 828 827 826 825 823 821 820 819 819 817 817 815
749 749 754 763 771 779 787 794 800 806 811 817 819 820 821 823 824 827 828 829 828 828 827 826 826 825 823 824 824 823 825 826 826 823 822 820 820 817 816 816 815 814 812
753 754 756 761 768 774 781 788 796 802 808 813 816 819 819 821 823 823 825 822 821 823 822 822 821 821 820 820 820 820 821 823 822 821 819 818 818 815 814 813 812 810 808
755 757 759 762 766 772 777 784 791 798 805 812 816 816 818 821 821 819 820 820 818 817 817 817 817 817 817 818 819 817 818 820 819 818 817 816 815 812 812 810 808 807 804
756 757 758 760 764 769 774 780 787 795 804 810 815 820 824 820 819 818 815 815 815 813 811 811 811 811 812 814 817 815 816 817 816 815 814 813 812 810 809 807 805 803 800
756 756 757 759 762 766 771 778 786 794 804 811 816 820 820 823 821 818 814 811 810 809 808 806 807 809 810 811 813 815 813 814 813 812 812 810 808 807 806 805 803 800 797
758 758 758 760 762 765 772 781 791 796 801 810 813 816 820 818 816 814 812 809 807 805 804 803 803 806 807 809 811 811 810 811 809 809 809 808 806 805 803 801 800 797 794
762 761 765 770 772 772 776 783 793 801 806 809 815 817 815 814 812 811 810 808 805 802 800 800 801 803 804 805 807 806 807 807 806 805 806 805 803 802 799 797 795 794 792
767 773 776 780 784 786 789 796 803 808 811 812 812 813 811 809 808 806 805 802 802 798 796 797 799 800 802 802 802 803 803 803 802 802 802 801 800 798 795 794 792 791 789
776 782 786 791 795 797 800 805 808 811 812 811 809 808 807 806 805 803 802 800 798 795 793 793 794 796 797 797 796 797 798 799 798 798 798 797 796 794 792 790 789 787 786
789 792 795 798 801 802 803 806 808 808 808 807 806 804 803 801 800 798 796 795 796 795 793 792 791 792 793 793 793 792 793 794 794 794 794 793 792 790 789 788 786 784 783
797 798 799 801 802 803 803 805 806 806 805 803 802 802 800 799 797 794 792 791 790 791 790 788 788 788 788 788 788 789 789 790 790 789 789 789 788 786 785 784 782 781 780
Wind_Speed
13 18 20 21 25 26 23 21 19 15 13 16 17 16 16 13 13 10 10 8 9 8 9 6 9 11 12 15 15 17 14 15 16 18 17 18 16 17 18 22 24 23 22
15 15 15 23 24 25 24 21 20 15 14 14 14 12 19 17 13 10 10 8 7 7 7 9 11 12 13 15 15 17 18 13 12 16 18 4 11 12 24 25 23 21 23
15 12 15 15 18 26 25 21 18 16 12 16 12 11 12 11 13 10 10 9 7 7 8 10 11 13 13 13 16 17 16 9 12 13 13 4 4 14 14 19 19 19 19
14 13 14 16 18 23 21 22 20 16 12 9 15 13 12 14 11 8 8 6 6 7 9 11 13 15 14 15 15 14 15 10 10 13 12 17 18 6 8 6 15 20 22
14 15 18 16 16 22 20 19 20 15 12 12 13 13 15 13 11 8 5 5 7 7 8 10 13 15 15 15 16 15 6 5 10 13 16 15 16 16 11 7 12 19 21
13 14 23 23 24 23 20 22 19 16 15 15 16 18 15 11 9 5 3 6 7 8 9 10 12 13 14 14 7 5 6 8 8 10 10 16 13 12 12 6 13 15 19
13 15 18 23 22 21 21 20 20 19 17 17 17 17 14 11 9 5 3 4 6 8 9 11 12 13 12 7 9 9 9 13 11 8 11 11 12 15 16 16 16 12 22
11 11 15 19 19 19 19 20 22 20 20 19 18 15 13 11 9 6 3 0 4 7 10 9 11 11 6 10 7 8 13 11 12 12 12 8 9 14 15 17 16 8 15
12 14 18 20 23 22 22 22 23 22 21 20 17 15 13 13 10 6 3 2 4 7 9 10 11 13 9 10 11 11 14 15 10 6 7 8 10 13 13 17 19 13 8
13 11 16 20 22 23 22 22 23 24 23 21 17 16 15 12 9 6 3 2 6 7 9 10 11 13 13 10 11 14 13 13 12 13 11 7 11 17 14 15 21 22 21
13 13 15 21 23 24 23 22 22 24 24 19 18 18 16 14 10 7 4 3 6 8 10 11 11 12 13 15 13 15 17 15 12 10 11 18 11 14 16 19 20 20 21
15 14 17 20 21 22 22 24 22 23 22 18 20 17 16 13 10 7 4 5 6 8 10 12 12 13 14 10 12 14 14 13 12 13 12 13 16 20 19 19 18 19 22
15 14 16 17 18 19 20 22 22 21 19 20 18 17 17 13 9 6 5 6 7 9 11 12 14 12 11 11 12 12 8 11 10 8 11 14 16 17 15 16 20 22 21
11 13 13 16 19 19 20 20 21 18 19 18 17 19 17 12 7 5 7 8 8 9 12 14 16 11 11 11 11 7 8 10 11 12 11 15 12 13 15 17 16 17 19
13 12 11 11 19 20 21 21 21 20 18 16 19 14 11 8 6 7 9 10 9 11 13 14 16 11 11 11 6 7 8 9 12 13 14 13 15 17 16 15 15 14 16
10 5 5 9 16 19 21 22 21 20 18 19 15 8 5 5 2 8 12 13 14 14 12 13 14 12 9 11 10 10 7 8 11 12 14 14 13 8 12 11 8 14 20
7 6 3 7 12 18 21 22 21 20 18 17 12 9 5 0 16 12 15 14 15 15 13 14 13 11 9 11 11 10 7 9 10 13 12 12 11 12 12 13 18 19 19
4 4 4 8 14 15 19 22 21 19 18 14 8 3 6 9 13 12 14 16 15 14 14 14 13 10 6 9 11 9 6 6 10 11 12 11 9 12 12 16 19 17 19
3 6 8 12 13 15 18 23 18 17 15 10 4 6 11 8 14 12 12 14 17 16 16 15 12 6 7 9 10 7 5 6 10 10 11 12 10 12 14 18 16 18 19
11 10 9 8 12 14 14 18 13 10 10 2 3 5 14 18 14 14 14 15 15 15 16 13 4 5 6 8 9 9 6 7 8 9 10 13 8 10 13 13 16 18 19
17 14 7 13 7 10 13 15 14 11 8 6 6 9 15 12 13 14 12 14 17 17 18 9 5 5 7 9 11 12 10 7 8 8 9 8 7 13 17 13 14 15 19
14 16 25 26 26 20 16 17 16 10 7 5 7 14 12 11 12 15 17 16 17 19 11 5 6 7 10 15 17 15 11 10 10 10 11 11 13 17 13 12 12 14 16
18 24 23 25 26 26 23 21 14 8 5 7 9 10 11 11 11 12 16 15 17 17 5 7 9 10 14 18 19 18 15 12 9 8 10 12 13 15 15 12 14 14 14
21 18 21 20 19 18 17 13 7 1 8 10 11 10 10 11 13 14 12 13 15 14 10 9 12 15 16 11 15 17 16 14 13 11 11 10 15 13 13 13 12 10 11
19 19 18 16 13 10 8 4 6 9 9 10 11 11 12 14 13 14 12 12 15 17 14 11 13 17 16 12 8 9 14 15 13 11 12 13 13 11 11 12 13 11 11
13 13 11 8 6 4 6 6 6 8 10 11 12 12 12 13 15 17 17 11 14 17 20 22 20 18 17 15 13 11 14 16 15 14 11 13 15 13 11 13 15 11 9
Wind_Direction
148 155 171 163 148 152 160 163 164 178 174 154 148 153 137 121 108 100 88 83 73 47 29 15 351 342 340 337 331 320 324 324 328 324 327 323 320 324 326 340 344 343 341
169 166 180 164 161 159 165 169 171 183 204 152 129 131 124 121 124 126 115 90 61 38 8 353 338 328 331 323 322 330 327 311 327 340 328 321 318 305 336 334 335 330 328
158 172 178 169 172 162 162 173 171 181 160 140 120 121 123 134 141 117 107 50 23 5 349 343 339 334 320 318 319 320 311 349 334 322 329 334 326 332 335 326 319 330 330
159 168 181 182 160 159 168 175 173 145 128 138 128 113 104 103 91 80 56 26 3 348 341 339 338 331 329 326 318 314 320 326 332 328 333 339 338 332 322 313 331 328 333
169 169 179 148 153 163 175 166 140 133 148 129 127 115 107 110 108 70 42 12 355 350 344 340 334 331 325 316 313 310 315 348 13 0 344 333 315 318 324 323 335 327 320
162 172 146 160 178 173 152 140 140 145 145 133 126 122 111 105 96 80 49 14 346 341 338 328 335 331 328 327 332 341 352 351 341 337 319 308 331 328 328 315 318 310 310
172 172 160 176 153 139 138 143 151 147 143 134 128 125 126 126 130 117 84 17 336 328 323 333 331 330 324 325 336 336 341 321 305 297 305 308 319 323 326 324 312 302 310
165 166 163 144 152 150 158 169 159 156 153 145 140 138 138 142 147 156 130 13 300 305 313 318 322 315 293 328 305 309 306 299 293 285 284 297 315 305 317 312 313 308 302
175 178 164 159 160 170 178 179 170 163 160 157 154 155 157 162 161 157 152 230 292 293 309 318 314 314 279 280 282 295 289 295 298 265 271 283 303 310 319 318 316 312 313
183 184 173 168 169 177 180 185 183 168 169 166 172 166 165 167 167 170 188 245 278 296 306 309 305 304 315 275 286 298 299 304 295 295 293 329 333 324 306 319 312 306 296
191 188 186 181 176 175 180 188 192 172 174 176 179 175 175 179 184 189 199 247 280 301 305 304 303 304 302 304 311 309 311 290 306 285 323 317 310 307 325 318 307 306 309
191 191 193 191 177 174 184 191 196 182 179 187 184 183 184 188 201 206 214 251 282 295 301 302 299 294 299 316 314 316 310 322 335 341 327 332 335 323 324 322 327 332 327
192 196 192 185 181 187 193 191 199 193 187 194 186 192 193 193 209 232 248 268 288 300 302 298 290 295 316 311 293 287 313 324 310 314 327 325 319 319 321 319 331 327 322
205 205 196 182 180 189 191 197 202 197 199 194 204 204 199 199 213 234 259 272 287 298 301 292 290 297 298 296 304 310 342 328 316 320 319 313 319 314 315 317 314 314 319
210 212 201 179 173 186 195 198 199 199 202 204 218 213 191 201 237 256 259 276 274 291 282 287 288 276 281 276 257 304 320 312 316 313 315 317 320 315 301 313 303 300 302
300 239 200 170 179 191 193 197 201 198 195 214 225 208 173 213 224 271 271 275 273 272 279 289 292 293 258 256 256 273 276 294 304 315 317 312 313 311 326 331 306 300 295
297 298 253 200 201 200 198 198 197 191 195 209 212 213 186 220 293 272 265 270 272 269 273 277 285 284 268 256 242 254 272 293 303 311 312 313 309 311 305 305 306 306 303
324 301 260 228 219 213 202 195 195 188 192 202 202 134 318 301 262 264 271 278 281 277 276 280 280 271 268 250 245 250 277 296 299 302 303 302 304 310 309 316 319 314 311
346 281 271 227 215 214 207 188 187 178 186 172 73 351 273 317 288 294 300 301 292 288 278 279 275 242 243 226 241 253 274 291 296 296 295 293 289 285 300 315 314 311 312
317 309 294 247 223 213 190 164 157 161 118 24 343 21 356 291 315 311 308 304 303 308 298 286 229 250 248 231 243 262 281 286 293 294 296 300 272 282 311 313 310 306 309
336 329 334 36 59 149 149 130 114 99 91 77 22 339 280 291 292 303 310 310 303 296 292 265 228 223 251 254 248 261 271 261 270 284 292 307 312 307 310 305 300 298 308
339 38 61 56 53 68 116 104 89 81 85 27 341 274 282 295 300 307 308 302 299 292 269 201 204 229 247 245 246 250 259 254 269 276 275 283 292 307 310 309 302 296 314
68 70 77 69 59 59 76 79 78 72 4 269 257 276 286 285 292 292 299 297 293 297 229 222 226 241 254 247 241 249 252 255 264 281 279 277 303 305 301 301 298 299 302
67 83 80 74 71 70 72 75 70 1 258 264 264 274 284 288 283 288 288 300 317 314 264 228 233 238 244 253 230 231 240 243 253 269 282 274 302 299 305 308 313 311 307
67 74 78 81 84 91 99 140 224 244 262 273 277 276 273 280 281 291 280 286 291 301 312 284 262 250 243 228 241 248 235 236 243 235 264 292 287 288 295 301 303 303 306
88 94 104 115 129 158 210 237 262 260 265 273 279 275 278 283 288 287 284 278 295 301 296 282 275 267 253 240 248 252 251 248 250 256 266 272 279 275 281 291 298 302 309